Time,TemperatureF,DewpointF,PressureIn,WindDirection,WindDirectionDegrees,WindSpeedMPH,WindSpeedGustMPH,Humidity,HourlyPrecipIn,Conditions,Clouds,dailyrainin,SoftwareType,DateUTC
2013-07-04 00:02:00,72.0,-99.9,-100.00,South,183,0.0,-999.0,-999,-99.99,,,-99.99,,2013-07-04 04:02:00,
2013-07-04 00:11:00,72.0,-99.9,-100.00,South,183,0.0,-999.0,-999,-99.99,,,-99.99,,2013-07-04 04:11:00,
2013-07-04 00:22:00,71.0,-99.9,-100.00,South,183,0.0,-999.0,-999,-99.99,,,-99.99,,2013-07-04 04:22:00,
2013-07-04 00:33:00,71.0,-99.9,-100.00,South,183,0.0,-999.0,-999,-99.99,,,-99.99,,2013-07-04 04:33:00,
2013-07-04 00:43:00,71.0,-99.9,-100.00,South,183,0.0,-999.0,-999,-99.99,,,-99.99,,2013-07-04 04:43:00,
2013-07-04 00:52:00,70.0,-99.9,-100.00,South,183,0.0,-999.0,-999,-99.99,,,-99.99,,2013-07-04 04:52:00,
2013-07-04 01:02:00,70.0,-99.9,-100.00,South,183,0.0,-999.0,-999,-99.99,,,-99.99,,2013-07-04 05:02:00,
2013-07-04 01:12:00,68.0,-99.9,-100.00,South,183,0.0,-999.0,-999,-99.99,,,-99.99,,2013-07-04 05:12:00,
2013-07-04 01:22:00,68.0,-99.9,-100.00,South,183,0.0,-999.0,-999,-99.99,,,-99.99,,2013-07-04 05:22:00,
2013-07-04 01:33:00,68.0,-99.9,-100.00,South,183,0.0,-999.0,-999,-99.99,,,-99.99,,2013-07-04 05:33:00,
2013-07-04 01:43:00,68.0,-99.9,-100.00,South,183,0.0,-999.0,-999,-99.99,,,-99.99,,2013-07-04 05:43:00,
2013-07-04 01:52:00,67.0,-99.9,-100.00,South,183,0.0,-999.0,-999,-99.99,,,-99.99,,2013-07-04 05:52:00,
2013-07-04 02:01:00,67.0,-99.9,-100.00,South,183,0.0,-999.0,-999,-99.99,,,-99.99,,2013-07-04 06:01:00,
2013-07-04 02:11:00,67.0,-99.9,-100.00,South,183,0.0,-999.0,-999,-99.99,,,-99.99,,2013-07-04 06:11:00,
2013-07-04 02:22:00,67.0,-99.9,-100.00,South,183,0.0,-999.0,-999,-99.99,,,-99.99,,2013-07-04 06:22:00,
2013-07-04 02:34:00,67.0,-99.9,-100.00,South,183,0.0,-999.0,-999,-99.99,,,-99.99,,2013-07-04 06:34:00,
2013-07-04 02:43:00,67.0,-99.9,-100.00,South,183,0.0,-999.0,-999,-99.99,,,-99.99,,2013-07-04 06:43:00,
2013-07-04 02:53:00,66.0,-99.9,-100.00,South,183,0.0,-999.0,-999,-99.99,,,-99.99,,2013-07-04 06:53:00,
2013-07-04 03:03:00,66.0,-99.9,-100.00,South,183,0.0,-999.0,-999,-99.99,,,-99.99,,2013-07-04 07:03:00,
2013-07-04 03:12:00,66.0,-99.9,-100.00,South,183,0.0,-999.0,-999,-99.99,,,-99.99,,2013-07-04 07:12:00,
2013-07-04 03:22:00,65.0,-99.9,-100.00,South,183,0.0,-999.0,-999,-99.99,,,-99.99,,2013-07-04 07:22:00,
2013-07-04 03:34:00,66.0,-99.9,-100.00,South,183,0.0,-999.0,-999,-99.99,,,-99.99,,2013-07-04 07:34:00,
2013-07-04 03:43:00,66.0,-99.9,-100.00,South,183,0.0,-999.0,-999,-99.99,,,-99.99,,2013-07-04 07:43:00,
2013-07-04 03:52:00,66.0,-99.9,-100.00,South,183,0.0,-999.0,-999,-99.99,,,-99.99,,2013-07-04 07:52:00,
2013-07-04 04:02:00,65.0,-99.9,-100.00,South,183,0.0,-999.0,-999,-99.99,,,-99.99,,2013-07-04 08:02:00,
2013-07-04 04:12:00,65.0,-99.9,-100.00,South,183,0.0,-999.0,-999,-99.99,,,-99.99,,2013-07-04 08:12:00,
2013-07-04 04:22:00,65.0,-99.9,-100.00,South,183,0.0,-999.0,-999,-99.99,,,-99.99,,2013-07-04 08:22:00,
2013-07-04 04:33:00,65.0,-99.9,-100.00,South,183,0.0,-999.0,-999,-99.99,,,-99.99,,2013-07-04 08:33:00,
2013-07-04 04:43:00,65.0,-99.9,-100.00,South,183,0.0,-999.0,-999,-99.99,,,-99.99,,2013-07-04 08:43:00,
2013-07-04 04:53:00,65.0,-99.9,-100.00,South,183,0.0,-999.0,-999,-99.99,,,-99.99,,2013-07-04 08:53:00,
2013-07-04 05:02:00,64.0,-99.9,-100.00,South,183,0.0,-999.0,-999,-99.99,,,-99.99,,2013-07-04 09:02:00,
2013-07-04 05:11:00,64.0,-99.9,-100.00,South,183,0.0,-999.0,-999,-99.99,,,-99.99,,2013-07-04 09:11:00,
2013-07-04 05:22:00,65.0,-99.9,-100.00,South,183,0.0,-999.0,-999,-99.99,,,-99.99,,2013-07-04 09:22:00,
2013-07-04 05:42:00,65.0,-99.9,-100.00,South,183,0.0,-999.0,-999,-99.99,,,-99.99,,2013-07-04 09:42:00,
2013-07-04 05:52:00,64.0,-99.9,-100.00,South,183,0.0,-999.0,-999,-99.99,,,-99.99,,2013-07-04 09:52:00,
2013-07-04 06:11:00,64.0,-99.9,-100.00,South,183,0.0,-999.0,-999,-99.99,,,-99.99,,2013-07-04 10:11:00,
2013-07-04 06:22:00,64.0,-99.9,-100.00,South,183,0.0,-999.0,-999,-99.99,,,-99.99,,2013-07-04 10:22:00,
2013-07-04 06:34:00,64.0,-99.9,-100.00,South,183,0.0,-999.0,-999,-99.99,,,-99.99,,2013-07-04 10:34:00,
2013-07-04 06:43:00,64.0,-99.9,-100.00,South,183,0.0,-999.0,-999,-99.99,,,-99.99,,2013-07-04 10:43:00,
2013-07-04 06:53:00,64.0,-99.9,-100.00,South,183,0.0,-999.0,-999,-99.99,,,-99.99,,2013-07-04 10:53:00,
2013-07-04 07:02:00,64.0,-99.9,-100.00,South,183,0.0,-999.0,-999,-99.99,,,-99.99,,2013-07-04 11:02:00,
2013-07-04 07:12:00,64.0,-99.9,-100.00,South,183,0.0,-999.0,-999,-99.99,,,-99.99,,2013-07-04 11:12:00,
2013-07-04 07:34:00,65.0,-99.9,-100.00,South,183,0.0,-999.0,-999,-99.99,,,-99.99,,2013-07-04 11:34:00,
2013-07-04 07:43:00,66.0,-99.9,-100.00,South,183,0.0,-999.0,-999,-99.99,,,-99.99,,2013-07-04 11:43:00,
2013-07-04 07:53:00,66.0,-99.9,-100.00,South,183,0.0,-999.0,-999,-99.99,,,-99.99,,2013-07-04 11:53:00,
2013-07-04 08:02:00,66.0,-99.9,-100.00,South,183,0.0,-999.0,-999,-99.99,,,-99.99,,2013-07-04 12:02:00,
2013-07-04 08:12:00,67.0,-99.9,-100.00,South,183,0.0,-999.0,-999,-99.99,,,-99.99,,2013-07-04 12:12:00,
2013-07-04 08:22:00,67.0,-99.9,-100.00,South,183,0.0,-999.0,-999,-99.99,,,-99.99,,2013-07-04 12:22:00,
2013-07-04 08:43:00,68.0,-99.9,-100.00,South,183,0.0,-999.0,-999,-99.99,,,-99.99,,2013-07-04 12:43:00,
2013-07-04 08:52:00,69.0,-99.9,-100.00,South,183,0.0,-999.0,-999,-99.99,,,-99.99,,2013-07-04 12:52:00,
2013-07-04 09:12:00,70.0,-99.9,-100.00,South,183,0.0,-999.0,-999,-99.99,,,-99.99,,2013-07-04 13:12:00,
2013-07-04 09:23:00,70.0,-99.9,-100.00,South,183,0.0,-999.0,-999,-99.99,,,-99.99,,2013-07-04 13:23:00,
2013-07-04 09:33:00,70.0,-99.9,-100.00,South,183,0.0,-999.0,-999,-99.99,,,-99.99,,2013-07-04 13:33:00,
2013-07-04 09:43:00,70.0,-99.9,-100.00,South,183,0.0,-999.0,-999,-99.99,,,-99.99,,2013-07-04 13:43:00,
2013-07-04 09:53:00,70.0,-99.9,-100.00,South,183,0.0,-999.0,-999,-99.99,,,-99.99,,2013-07-04 13:53:00,
2013-07-04 10:02:00,71.0,-99.9,-100.00,South,183,0.0,-999.0,-999,-99.99,,,-99.99,,2013-07-04 14:02:00,
2013-07-04 10:12:00,71.0,-99.9,-100.00,South,183,0.0,-999.0,-999,-99.99,,,-99.99,,2013-07-04 14:12:00,
2013-07-04 10:22:00,72.0,-99.9,-100.00,South,183,0.0,-999.0,-999,-99.99,,,-99.99,,2013-07-04 14:22:00,
2013-07-04 10:33:00,72.0,-99.9,-100.00,South,183,0.0,-999.0,-999,-99.99,,,-99.99,,2013-07-04 14:33:00,
2013-07-04 10:43:00,72.0,-99.9,-100.00,South,183,0.0,-999.0,-999,-99.99,,,-99.99,,2013-07-04 14:43:00,
2013-07-04 10:53:00,72.0,-99.9,-100.00,South,183,0.0,-999.0,-999,-99.99,,,-99.99,,2013-07-04 14:53:00,
2013-07-04 11:02:00,74.0,-99.9,-100.00,South,183,0.0,-999.0,-999,-99.99,,,-99.99,,2013-07-04 15:02:00,
2013-07-04 11:11:00,74.0,-99.9,-100.00,South,183,0.0,-999.0,-999,-99.99,,,-99.99,,2013-07-04 15:11:00,
2013-07-04 11:23:00,75.0,-99.9,-100.00,South,183,2.0,-999.0,-999,-99.99,,,-99.99,,2013-07-04 15:23:00,
2013-07-04 11:33:00,76.0,-99.9,-100.00,South,183,0.0,-999.0,-999,-99.99,,,-99.99,,2013-07-04 15:33:00,
2013-07-04 11:43:00,76.0,-99.9,-100.00,South,183,0.0,-999.0,-999,-99.99,,,-99.99,,2013-07-04 15:43:00,
2013-07-04 11:53:00,75.0,-99.9,-100.00,South,183,0.0,-999.0,-999,-99.99,,,-99.99,,2013-07-04 15:53:00,
2013-07-04 12:02:00,76.0,-99.9,-100.00,South,183,0.0,-999.0,-999,-99.99,,,-99.99,,2013-07-04 16:02:00,
2013-07-04 12:11:00,76.0,-99.9,-100.00,South,183,0.0,-999.0,-999,-99.99,,,-99.99,,2013-07-04 16:11:00,
2013-07-04 12:22:00,77.0,-99.9,-100.00,NE,44,1.0,-999.0,-999,-99.99,,,-99.99,,2013-07-04 16:22:00,
2013-07-04 12:33:00,77.0,-99.9,-100.00,NNE,31,0.0,-999.0,-999,-99.99,,,-99.99,,2013-07-04 16:33:00,
2013-07-04 12:43:00,77.0,-99.9,-100.00,NNE,31,0.0,-999.0,-999,-99.99,,,-99.99,,2013-07-04 16:43:00,
2013-07-04 12:52:00,77.0,-99.9,-100.00,North,351,5.0,-999.0,-999,-99.99,,,-99.99,,2013-07-04 16:52:00,
2013-07-04 13:02:00,79.0,-99.9,-100.00,North,0,0.0,-999.0,-999,-99.99,,,-99.99,,2013-07-04 17:02:00,
2013-07-04 13:12:00,79.0,-99.9,-100.00,North,0,0.0,-999.0,-999,-99.99,,,-99.99,,2013-07-04 17:12:00,
2013-07-04 13:22:00,79.0,-99.9,-100.00,ENE,69,1.0,-999.0,-999,-99.99,,,-99.99,,2013-07-04 17:22:00,
2013-07-04 13:34:00,80.0,-99.9,-100.00,NNE,21,0.0,-999.0,-999,-99.99,,,-99.99,,2013-07-04 17:34:00,
2013-07-04 13:43:00,80.0,-99.9,-100.00,NNE,21,0.0,-999.0,-999,-99.99,,,-99.99,,2013-07-04 17:43:00,
2013-07-04 13:53:00,79.0,-99.9,-100.00,ENE,63,0.0,-999.0,-999,-99.99,,,-99.99,,2013-07-04 17:53:00,
2013-07-04 14:02:00,79.0,-99.9,-100.00,East,97,0.0,-999.0,-999,-99.99,,,-99.99,,2013-07-04 18:02:00,
2013-07-04 14:11:00,79.0,-99.9,-100.00,East,97,0.0,-999.0,-999,-99.99,,,-99.99,,2013-07-04 18:11:00,
2013-07-04 14:22:00,80.0,-99.9,-100.00,ENE,74,0.0,-999.0,-999,-99.99,,,-99.99,,2013-07-04 18:22:00,
2013-07-04 14:33:00,79.0,-99.9,-100.00,ENE,78,0.0,-999.0,-999,-99.99,,,-99.99,,2013-07-04 18:33:00,
2013-07-04 14:43:00,79.0,-99.9,-100.00,ENE,78,0.0,-999.0,-999,-99.99,,,-99.99,,2013-07-04 18:43:00,
2013-07-04 14:52:00,80.0,-99.9,-100.00,ENE,76,0.0,-999.0,-999,-99.99,,,-99.99,,2013-07-04 18:52:00,
2013-07-04 15:02:00,79.0,-99.9,-100.00,East,85,3.0,-999.0,-999,-99.99,,,-99.99,,2013-07-04 19:02:00,
2013-07-04 15:12:00,79.0,-99.9,-100.00,East,85,3.0,-999.0,-999,-99.99,,,-99.99,,2013-07-04 19:12:00,
2013-07-04 15:22:00,80.0,-99.9,-100.00,East,87,0.0,-999.0,-999,-99.99,,,-99.99,,2013-07-04 19:22:00,
2013-07-04 15:34:00,79.0,-99.9,-100.00,East,87,0.0,-999.0,-999,-99.99,,,-99.99,,2013-07-04 19:34:00,
2013-07-04 15:43:00,79.0,-99.9,-100.00,East,87,0.0,-999.0,-999,-99.99,,,-99.99,,2013-07-04 19:43:00,
2013-07-04 15:53:00,79.0,-99.9,-100.00,East,87,0.0,-999.0,-999,-99.99,,,-99.99,,2013-07-04 19:53:00,
2013-07-04 16:02:00,78.0,-99.9,-100.00,East,87,0.0,-999.0,-999,-99.99,,,-99.99,,2013-07-04 20:02:00,
2013-07-04 16:12:00,78.0,-99.9,-100.00,East,87,0.0,-999.0,-999,-99.99,,,-99.99,,2013-07-04 20:12:00,
2013-07-04 16:22:00,77.0,-99.9,-100.00,East,87,0.0,-999.0,-999,-99.99,,,-99.99,,2013-07-04 20:22:00,
2013-07-04 16:34:00,78.0,-99.9,-100.00,East,87,0.0,-999.0,-999,-99.99,,,-99.99,,2013-07-04 20:34:00,
2013-07-04 16:42:00,78.0,-99.9,-100.00,East,87,0.0,-999.0,-999,-99.99,,,-99.99,,2013-07-04 20:42:00,
2013-07-04 16:53:00,77.0,-99.9,-100.00,East,87,0.0,-999.0,-999,-99.99,,,-99.99,,2013-07-04 20:53:00,
2013-07-04 17:02:00,77.0,-99.9,-100.00,East,87,0.0,-999.0,-999,-99.99,,,-99.99,,2013-07-04 21:02:00,
2013-07-04 17:12:00,77.0,-99.9,-100.00,East,87,0.0,-999.0,-999,-99.99,,,-99.99,,2013-07-04 21:12:00,
2013-07-04 17:22:00,77.0,-99.9,-100.00,East,87,0.0,-999.0,-999,-99.99,,,-99.99,,2013-07-04 21:22:00,
2013-07-04 17:32:00,78.0,-99.9,-100.00,East,87,0.0,-999.0,-999,-99.99,,,-99.99,,2013-07-04 21:32:00,
2013-07-04 17:43:00,78.0,-99.9,-100.00,East,87,0.0,-999.0,-999,-99.99,,,-99.99,,2013-07-04 21:43:00,
2013-07-04 17:53:00,78.0,-99.9,-100.00,East,87,0.0,-999.0,-999,-99.99,,,-99.99,,2013-07-04 21:53:00,
2013-07-04 18:02:00,77.0,-99.9,-100.00,East,87,0.0,-999.0,-999,-99.99,,,-99.99,,2013-07-04 22:02:00,
2013-07-04 18:12:00,77.0,-99.9,-100.00,East,87,0.0,-999.0,-999,-99.99,,,-99.99,,2013-07-04 22:12:00,
2013-07-04 18:22:00,76.0,-99.9,-100.00,ENE,77,0.0,-999.0,-999,-99.99,,,-99.99,,2013-07-04 22:22:00,
2013-07-04 18:33:00,76.0,-99.9,-100.00,ENE,74,2.0,-999.0,-999,-99.99,,,-99.99,,2013-07-04 22:33:00,
2013-07-04 18:43:00,76.0,-99.9,-100.00,ENE,74,2.0,-999.0,-999,-99.99,,,-99.99,,2013-07-04 22:43:00,
2013-07-04 18:52:00,76.0,-99.9,-100.00,ENE,74,0.0,-999.0,-999,-99.99,,,-99.99,,2013-07-04 22:52:00,
2013-07-04 19:02:00,76.0,-99.9,-100.00,ENE,74,0.0,-999.0,-999,-99.99,,,-99.99,,2013-07-04 23:02:00,
2013-07-04 19:12:00,76.0,-99.9,-100.00,ENE,74,0.0,-999.0,-999,-99.99,,,-99.99,,2013-07-04 23:12:00,
2013-07-04 19:23:00,76.0,-99.9,-100.00,ENE,74,0.0,-999.0,-999,-99.99,,,-99.99,,2013-07-04 23:23:00,
2013-07-04 19:34:00,75.0,-99.9,-100.00,ENE,74,0.0,-999.0,-999,-99.99,,,-99.99,,2013-07-04 23:34:00,
2013-07-04 19:43:00,75.0,-99.9,-100.00,ENE,74,0.0,-999.0,-999,-99.99,,,-99.99,,2013-07-04 23:43:00,
2013-07-04 19:52:00,75.0,-99.9,-100.00,ENE,74,0.0,-999.0,-999,-99.99,,,-99.99,,2013-07-04 23:52:00,
2013-07-04 20:02:00,75.0,-99.9,-100.00,ENE,74,0.0,-999.0,-999,-99.99,,,-99.99,,2013-07-05 00:02:00,
2013-07-04 20:12:00,75.0,-99.9,-100.00,ENE,74,0.0,-999.0,-999,-99.99,,,-99.99,,2013-07-05 00:12:00,
2013-07-04 20:22:00,75.0,-99.9,-100.00,ENE,74,0.0,-999.0,-999,-99.99,,,-99.99,,2013-07-05 00:22:00,
2013-07-04 20:32:00,75.0,-99.9,-100.00,ENE,74,0.0,-999.0,-999,-99.99,,,-99.99,,2013-07-05 00:32:00,
2013-07-04 20:43:00,75.0,-99.9,-100.00,ENE,74,0.0,-999.0,-999,-99.99,,,-99.99,,2013-07-05 00:43:00,
2013-07-04 20:53:00,74.0,-99.9,-100.00,ENE,74,0.0,-999.0,-999,-99.99,,,-99.99,,2013-07-05 00:53:00,
2013-07-04 21:01:00,74.0,-99.9,-100.00,ENE,74,0.0,-999.0,-999,-99.99,,,-99.99,,2013-07-05 01:01:00,
2013-07-04 21:11:00,74.0,-99.9,-100.00,ENE,74,0.0,-999.0,-999,-99.99,,,-99.99,,2013-07-05 01:11:00,
2013-07-04 21:22:00,74.0,-99.9,-100.00,ENE,74,0.0,-999.0,-999,-99.99,,,-99.99,,2013-07-05 01:22:00,
2013-07-04 21:32:00,74.0,-99.9,-100.00,ENE,74,0.0,-999.0,-999,-99.99,,,-99.99,,2013-07-05 01:32:00,
2013-07-04 21:42:00,74.0,-99.9,-100.00,ENE,74,0.0,-999.0,-999,-99.99,,,-99.99,,2013-07-05 01:42:00,
2013-07-04 21:52:00,73.0,-99.9,-100.00,ENE,74,0.0,-999.0,-999,-99.99,,,-99.99,,2013-07-05 01:52:00,
2013-07-04 22:02:00,73.0,-99.9,-100.00,ENE,74,0.0,-999.0,-999,-99.99,,,-99.99,,2013-07-05 02:02:00,
2013-07-04 22:11:00,73.0,-99.9,-100.00,ENE,74,0.0,-999.0,-999,-99.99,,,-99.99,,2013-07-05 02:11:00,
2013-07-04 22:22:00,73.0,-99.9,-100.00,ENE,74,0.0,-999.0,-999,-99.99,,,-99.99,,2013-07-05 02:22:00,
2013-07-04 22:32:00,73.0,-99.9,-100.00,ENE,74,0.0,-999.0,-999,-99.99,,,-99.99,,2013-07-05 02:32:00,
2013-07-04 22:43:00,73.0,-99.9,-100.00,ENE,74,0.0,-999.0,-999,-99.99,,,-99.99,,2013-07-05 02:43:00,
2013-07-04 22:53:00,72.0,-99.9,-100.00,ENE,74,0.0,-999.0,-999,-99.99,,,-99.99,,2013-07-05 02:53:00,
2013-07-04 23:02:00,72.0,-99.9,-100.00,ENE,74,0.0,-999.0,-999,-99.99,,,-99.99,,2013-07-05 03:02:00,
2013-07-04 23:11:00,72.0,-99.9,-100.00,ENE,74,0.0,-999.0,-999,-99.99,,,-99.99,,2013-07-05 03:11:00,
2013-07-04 23:22:00,72.0,-99.9,-100.00,ENE,74,0.0,-999.0,-999,-99.99,,,-99.99,,2013-07-05 03:22:00,
2013-07-04 23:33:00,72.0,-99.9,-100.00,ENE,74,0.0,-999.0,-999,-99.99,,,-99.99,,2013-07-05 03:33:00,
2013-07-04 23:42:00,72.0,-99.9,-100.00,ENE,74,0.0,-999.0,-999,-99.99,,,-99.99,,2013-07-05 03:42:00,
2013-07-04 23:52:00,71.0,-99.9,-100.00,ENE,74,0.0,-999.0,-999,-99.99,,,-99.99,,2013-07-05 03:52:00,